This demonstration page uses our WeatherBlox Daily Observations layout. Learn more.

Left ArrowRight Arrow

39.51506, -84.39828

Hourly Observations for December 17, 2018

Temp ( °F °C ) Dew Point ( °F °C ) Humidity (%) Winds ( mph kmh ) Pressure ( in mb ) Visibility ( mi km ) Precip ( " mm )
12:15 am 00:15 Cloudy with Fog 38 3.5 38 3.4 99 99 SW 5 7 30.15 1021 0 0 N/A
12:35 am 00:35 Cloudy with Fog 38 3.3 38 3.2 99 99 SSW 6 9 30.12 1020 0 0 N/A
12:55 am 00:55 Cloudy with Fog 37 2.5 36 2.4 99 99 SW 3 6 30.15 1021 0 0 N/A
1:15 am 01:15 Cloudy with Fog 35 1.4 34 1.3 99 99 N N/A 30.12 1020 0 0 N/A
1:35 am 01:35 Cloudy with Fog 34 1 34 0.9 99 99 SSW 3 6 30.12 1020 5 8 N/A
1:55 am 01:55 Cloudy with Fog 32 0.1 32 undefined 99 99 N N/A 30.09 1019 5 8 N/A
2:15 am 02:15 Cloudy with Fog 32 -0.1 32 -0.2 99 99 N N/A 30.09 1019 5 8 N/A
2:35 am 02:35 Cloudy with Freezing Fog 31 -0.5 31 -0.6 99 99 N N/A 30.09 1019 5 8 N/A
2:55 am 02:55 Cloudy with Freezing Fog 31 -0.7 31 -0.7 100 100 N N/A 30.12 1020 0 0 N/A
3:15 am 03:15 Mostly Clear with Freezing Fog 30 -1 30 -1.1 99 99 N N/A 30.09 1019 0 0 N/A
3:35 am 03:35 Mostly Cloudy with Freezing Fog 29 -1.6 29 -1.7 99 99 WSW 3 6 30.09 1019 1 1 N/A
3:55 am 03:55 Mostly Cloudy with Freezing Fog 31 -0.4 31 -0.5 99 99 WSW 3 6 30.12 1020 0 0 N/A
4:15 am 04:15 Mostly Cloudy with Freezing Fog 29 -1.7 29 -1.8 99 99 N N/A 30.12 1020 0 0 N/A
4:35 am 04:35 Mostly Cloudy with Freezing Fog 29 -1.8 28 -2 99 99 N N/A 30.12 1020 1 1 N/A
4:55 am 04:55 Mostly Cloudy with Freezing Fog 28 -2.4 27 -2.6 99 99 N N/A 30.12 1020 0 0 N/A
5:15 am 05:15 Mostly Cloudy with Freezing Fog 28 -2.4 27 -2.6 99 99 N N/A 30.12 1020 0 0 N/A
5:35 am 05:35 Mostly Cloudy with Freezing Fog 26 -3.6 25 -3.9 98 98 N N/A 30.12 1020 0 0 N/A
5:55 am 05:55 Mostly Cloudy with Freezing Fog 29 -1.8 28 -2 99 99 WSW 3 6 30.15 1021 0 0 N/A
6:15 am 06:15 Mostly Cloudy with Freezing Fog 28 -2.3 28 -2.5 99 99 SSW 5 7 30.15 1021 1 1 N/A
6:35 am 06:35 Mostly Cloudy with Mist and Fog 28 -2.4 27 -2.6 99 99 SSW 5 7 30.15 1021 2 3 N/A
6:55 am 06:55 Clear with Mist and Fog 30 -1 30 -1.1 99 99 SSW 6 9 30.15 1021 5 8 N/A
7:15 am 07:15 Clear with Mist and Fog 30 -1.1 30 -1.3 99 99 S 9 15 30.12 1020 5 8 N/A
7:35 am 07:35 Clear with Mist and Fog 30 -0.9 30 -1.1 99 99 WSW 3 6 30.15 1021 5 8 N/A
7:55 am 07:55 Sunny with Mist and Fog 30 -1 30 -1.2 99 99 WSW 3 6 30.15 1021 4 6 N/A
8:15 am 08:15 Mostly Cloudy with Mist and Fog 28 -2.3 28 -2.5 99 99 WSW 3 6 30.15 1021 1 2 N/A
8:35 am 08:35 Mostly Cloudy with Mist and Fog 28 -2.1 28 -2.3 99 99 N N/A 30.15 1021 1 2 N/A
8:55 am 08:55 Sunny with Mist and Fog 30 -0.9 30 -1 99 99 SSW 3 6 30.18 1022 3 5 N/A
9:15 am 09:15 Sunny with Mist and Fog 32 0.1 32 undefined 99 99 WSW 3 6 30.18 1022 4 6 N/A
9:35 am 09:35 Sunny 33 0.8 33 0.6 99 99 SSW 3 6 30.18 1022 7 11 N/A
9:55 am 09:55 Sunny 35 1.7 34 1 95 95 W 3 6 30.18 1022 10 16 N/A
10:15 am 10:15 Sunny 37 2.7 34 1.2 90 90 SW 3 6 30.18 1022 10 16 N/A
10:35 am 10:35 Sunny 38 3.5 34 1.3 86 86 W 5 7 30.18 1022 10 16 N/A
10:55 am 10:55 Sunny 39 4.1 33 0.8 79 79 NW 7 11 30.18 1022 10 16 N/A
11:15 am 11:15 Sunny 39 4 32 0.2 77 77 N 12 19 30.18 1022 10 16 N/A
11:35 am 11:35 Sunny 40 4.3 33 0.6 77 77 NNW 7 11 30.18 1022 10 16 N/A
11:55 am 11:55 Sunny 41 4.8 32 -0.2 70 70 NW 7 11 30.18 1022 10 16 N/A
12:15 pm 12:15 Sunny 43 6.1 31 -0.7 62 62 WNW 8 13 30.15 1021 10 16 N/A
12:35 pm 12:35 Sunny 43 6.1 30 -1.3 59 59 WNW 10 17 30.12 1020 10 16 N/A
12:55 pm 12:55 Sunny 44 6.6 31 -0.8 60 60 NNW 6 9 30.12 1020 10 16 N/A
1:15 pm 13:15 Sunny 44 6.6 30 -1.2 58 58 NW 8 13 30.12 1020 10 16 N/A
1:35 pm 13:35 Sunny 44 6.5 29 -1.5 57 57 W 5 7 30.12 1020 10 16 N/A
1:55 pm 13:55 Sunny 44 6.7 30 -1.1 58 58 NNW 7 11 30.12 1020 10 16 N/A
2:15 pm 14:15 Sunny 44 6.6 31 -0.8 60 60 WNW 6 9 30.12 1020 10 16 N/A
2:35 pm 14:35 Sunny 44 6.9 29 -1.4 56 56 WNW 9 15 30.12 1020 10 16 N/A
2:55 pm 14:55 Sunny 44 6.8 30 -1.2 57 57 WNW 9 15 30.12 1020 10 16 N/A
3:15 pm 15:15 Sunny 45 7 30 -1.1 57 57 NW 8 13 30.12 1020 10 16 N/A
3:35 pm 15:35 Sunny 44 6.8 29 -1.4 56 56 WNW 7 11 30.12 1020 10 16 N/A
3:55 pm 15:55 Sunny 44 6.5 28 -2.4 53 53 NW 10 17 30.12 1020 10 16 N/A
4:15 pm 16:15 Sunny 44 6.4 29 -1.8 56 56 NW 8 13 30.15 1021 10 16 N/A
4:35 pm 16:35 Sunny 43 5.9 29 -1.6 59 59 NNW 8 13 30.15 1021 10 16 N/A
4:55 pm 16:55 Sunny 42 5.3 29 -1.5 62 62 NNW 6 9 30.15 1021 10 16 N/A
5:15 pm 17:15 Sunny 40 4.7 30 -1.2 66 66 NW 6 9 30.18 1022 10 16 N/A
5:35 pm 17:35 Clear 40 4.3 30 -1 69 69 N N/A 30.18 1022 10 16 N/A
5:55 pm 17:55 Clear 38 3.5 31 -0.7 74 74 N N/A 30.21 1023 10 16 N/A
6:15 pm 18:15 Clear 35 1.5 31 -0.4 87 87 N N/A 30.21 1023 10 16 N/A
6:35 pm 18:35 Clear 33 0.4 30 -0.9 91 91 N N/A 30.21 1023 10 16 N/A
6:55 pm 18:55 Clear 34 0.9 31 -0.6 90 90 NNW 3 6 30.21 1023 10 16 N/A
7:15 pm 19:15 Clear 33 0.5 30 -0.9 90 90 N 5 7 30.21 1023 10 16 N/A
7:35 pm 19:35 Clear 31 -0.5 29 -1.5 93 93 N N/A 30.24 1024 10 16 N/A
7:55 pm 19:55 Clear 30 -1.2 28 -2 94 94 N N/A 30.24 1024 7 11 N/A
8:15 pm 20:15 Clear with Mist and Fog 30 -1.2 29 -1.8 96 96 N N/A 30.24 1024 7 11 N/A
8:35 pm 20:35 Clear with Mist and Fog 29 -1.6 28 -2.1 96 96 N N/A 30.24 1024 5 8 N/A
8:55 pm 20:55 Clear with Mist and Fog 30 -1.2 29 -1.7 96 96 N N/A 30.24 1024 7 11 N/A
9:15 pm 21:15 Clear with Mist and Fog 29 -1.5 29 -1.9 97 97 N N/A 30.24 1024 5 8 N/A
9:35 pm 21:35 Clear with Mist and Fog 28 -2.3 27 -2.7 97 97 N N/A 30.24 1024 4 6 N/A
9:55 pm 21:55 Clear with Mist and Fog 30 -1 30 -1.2 99 99 N N/A 30.24 1024 7 11 N/A
10:15 pm 22:15 Clear with Mist and Fog 29 -1.9 28 -2.2 98 98 N N/A 30.24 1024 5 8 N/A
10:35 pm 22:35 Clear with Mist and Fog 28 -2.4 27 -2.9 96 96 N N/A 30.24 1024 3 5 N/A
10:55 pm 22:55 Clear with Mist and Fog 28 -2.4 27 -2.9 96 96 N N/A 30.24 1024 4 6 N/A
11:15 pm 23:15 Mostly Cloudy with Freezing Fog 25 -3.7 25 -4.1 97 97 N N/A 30.24 1024 1 1 N/A
11:35 pm 23:35 Mostly Cloudy with Freezing Fog 27 -2.9 26 -3.2 98 98 N N/A 30.24 1024 1 1 N/A
11:55 pm 23:55 Mostly Cloudy with Freezing Fog 27 -2.9 26 -3.1 99 99 N N/A 30.24 1024 0 0 N/A

Powered by AerisWeather